sat.trackr.live / text

‹ back to catalog

STARLINK-3451

NORAD 51749 · 2022-016AM

PAYLOAD ACTIVE UNKNOWN

§ Identity

Operator
Country
US
Launch date
2022-02-21
Launch site
AFETR
Launch vehicle
Mass (kg)
RCS (m²)

Purposes: comms

External: N2YO · Heavens-Above · Gunter

§ Orbital elements

Epoch: 2026-09-19T04:17:48.484032Z

Period
94.01 min
Inclination
53.1580°
Eccentricity
0.0001165
Mean motion
15.31708372 rev/d
Perigee alt
469.9 km
Apogee alt
471.5 km
Semi-major
6,848.9 km
B*
-1.0309e-6
RAAN
156.9528°
Arg perigee
106.8948°
Mean anomaly
253.2182°
Rev number
25,295

§ Raw data

STARLINK-34511 51749U 22016AM  26262.17903338 -.00000397  00000+0 -10309-5 0  99972 51749  53.1580 156.9528 0001165 106.8948 253.2182 15.31708372252958

JSON: /api/v1/satellites/51749 · /tle

For live sub-satellite position, see the globe view (requires WebGL).

§ Visibility from observer

Set your observer location to see the next 7 days of passes ≥ 10°. The values pass through the URL so the page stays shareable.

No JS? Fill the form by hand. The geolocation button needs JavaScript.